GW3733 Weather Reports


time (UTC)temp
C
wind
direction
speed
KPH
gust
KPH
rain 1hr
cm
rain 24hr
cm
rain mn
cm
humidity
%
barometer
mb
20260905053227 18 339 0.0 0.0 0.00 0.00 0.00 99 1010.8
20260905052720 18 339 0.0 0.0 0.00 0.00 0.00 99 1010.3
20260905052215 18 339 0.0 0.0 0.00 0.00 0.00 99 1010.4
20260905051715 18 339 0.0 0.0 0.00 0.00 0.00 99 1010.3
20260905051212 18 339 0.0 0.0 0.00 0.00 0.00 99 1010.3
20260905050708 18 339 0.0 0.0 0.00 0.00 0.00 99 1010.5
20260905050204 18 339 0.0 0.0 0.00 0.00 0.00 99 1010.5
20260905045703 18 339 0.0 0.0 0.00 0.00 0.00 99 1010.9
20260905045159 18 339 0.0 0.0 0.00 0.00 0.00 99 1011.0
20260905044654 18 339 0.0 0.0 0.00 0.00 0.00 99 1010.8
20260905044149 18 339 0.0 0.0 0.00 0.00 0.00 99 1010.8
20260905043648 18 339 0.0 0.0 0.00 0.00 0.00 99 1010.8
20260905043143 18 339 0.0 0.0 0.00 0.00 0.00 99 1010.6
20260905042642 18 339 0.0 0.0 0.00 0.00 0.00 99 1010.8
20260905042137 18 339 0.0 0.0 0.00 0.00 0.00 99 1010.9
20260905041633 19 339 0.0 0.0 0.00 0.00 0.00 99 1010.9
20260905041129 19 339 0.0 0.0 0.00 0.00 0.00 99 1010.8
20260905040628 19 339 0.0 0.0 0.00 0.00 0.00 99 1011.0
20260905040121 19 339 0.0 0.0 0.00 0.00 0.00 99 1010.9
20260905035617 19 339 0.0 0.0 0.00 2.11 2.11 99 1010.9
20260905035113 19 339 0.0 0.0 0.00 2.11 2.11 99 1010.9
20260905034608 19 339 0.0 0.0 0.00 2.11 2.11 99 1010.9
20260905034102 19 339 0.0 0.0 0.00 2.11 2.11 99 1010.9
20260905033601 19 339 0.0 0.0 0.00 2.11 2.11 99 1010.9
20260905033058 19 339 0.0 0.0 0.00 2.11 2.11 99 1011.0
20260905032557 20 339 0.0 0.0 0.00 2.11 2.11 99 1011.0
20260905032052 20 339 0.0 0.0 0.00 2.11 2.11 99 1010.8
20260905031548 20 339 0.0 0.0 0.00 2.11 2.11 99 1011.1
20260905031048 20 339 0.0 0.0 0.00 2.11 2.11 99 1010.9
20260905030543 20 339 0.0 0.0 0.00 2.11 2.11 99 1010.6
20260905030043 20 339 0.0 0.0 0.00 2.11 2.11 99 1010.8
20260905025538 20 339 0.0 0.0 0.00 2.11 2.11 99 1010.9
20260905025035 20 339 0.0 0.0 0.00 2.11 2.11 99 1010.6
20260905024531 20 339 0.0 0.0 0.00 2.11 2.11 99 1010.9
20260905024026 20 339 0.0 0.0 0.00 2.11 2.11 99 1010.8
20260905023521 20 339 0.0 0.0 0.00 2.11 2.11 99 1010.9
20260905023021 20 339 0.0 0.0 0.00 2.11 2.11 99 1010.8
20260905022520 20 339 0.0 0.0 0.00 2.11 2.11 99 1010.8
20260905022016 20 339 0.0 0.0 0.00 2.11 2.11 99 1010.5
20260905021515 20 333 0.0 0.0 0.00 2.11 2.11 99 1010.4
20260905021010 20 333 0.0 0.0 0.00 2.11 2.11 99 1010.5
20260905020505 20 339 0.0 0.0 0.00 2.11 2.11 99 1010.4
20260905020005 20 339 0.0 0.0 0.00 2.11 2.11 99 1010.1
20260905015503 20 339 0.0 0.0 0.00 2.11 2.11 99 1010.0
20260905015003 20 339 0.0 0.0 0.00 2.11 2.11 99 1009.9
20260905014458 20 340 0.0 0.0 0.00 2.11 2.11 99 1010.0
20260905013953 20 340 0.0 0.0 0.00 2.11 2.11 99 1009.8
20260905013444 20 340 0.0 0.0 0.00 2.11 2.11 99 1009.7
20260905012938 20 340 0.0 0.0 0.00 2.11 2.11 99 1009.7
20260905012434 20 340 0.0 0.0 0.00 2.11 2.11 99 1009.9
20260905011930 20 340 0.0 0.0 0.00 2.11 2.11 99 1009.9
20260905011426 20 340 0.0 0.0 0.00 2.11 2.11 99 1010.0
20260905010921 20 340 0.0 0.0 0.00 2.11 2.11 99 1009.7
20260905010416 20 340 0.0 0.0 0.00 2.11 2.11 99 1009.7
20260905005912 20 340 0.0 0.0 0.00 2.11 2.11 99 1009.8
20260905005408 20 340 0.0 0.0 0.00 2.11 2.11 99 1009.9
20260905004903 20 340 0.0 0.0 0.00 2.11 2.11 99 1009.8
20260905004403 20 340 0.0 0.0 0.00 2.11 2.11 99 1009.7
20260905003858 20 340 0.0 0.0 0.00 2.11 2.11 99 1009.7
20260905003354 21 340 0.0 0.0 0.00 2.11 2.11 99 1009.8
20260905002850 21 338 0.0 0.0 0.00 2.11 2.11 99 1009.9
20260905002344 21 347 0.0 0.0 0.00 2.11 2.11 99 1009.7
20260905001838 21 354 0.0 0.0 0.00 2.11 2.11 99 1009.7
20260905001333 21 354 0.0 0.0 0.00 2.11 2.11 99 1009.7
20260905000828 21 352 0.0 0.0 0.00 2.11 2.11 99 1009.5
20260905000325 21 347 0.0 0.0 0.00 2.11 2.11 99 1009.6
20260904235819 21 5 0.0 1.6 0.00 2.11 2.11 99 1009.5
20260904235314 22 2 0.0 0.0 0.00 2.11 2.11 99 1009.7
20260904234808 22 0 0.0 0.0 0.00 2.11 2.11 99 1009.6
20260904234258 22 332 1.6 3.2 0.00 2.11 2.11 98 1009.5
20260904233753 22 335 1.6 1.6 0.00 2.11 2.11 96 1009.6
20260904233244 22 341 0.0 0.0 0.00 2.11 2.11 93 1009.7
20260904232741 23 342 1.6 1.6 0.00 2.11 2.11 90 1009.6
20260904232236 23 343 1.6 1.6 0.00 2.11 2.11 90 1009.6
20260904231731 23 342 0.0 1.6 0.00 2.11 2.11 89 1009.6
20260904231227 23 344 0.0 0.0 0.00 2.11 2.11 90 1009.7
20260904230727 23 343 0.0 0.0 0.00 2.11 2.11 89 1009.7
20260904230221 23 342 1.6 1.6 0.00 2.11 2.11 87 1009.8
20260904225720 23 344 0.0 1.6 0.00 2.11 2.11 88 1009.9
20260904225215 22 342 3.2 3.2 0.00 2.11 2.11 93 1009.8
20260904224714 22 340 0.0 1.6 0.00 2.11 2.11 95 1009.7
20260904224209 22 341 1.6 1.6 0.00 2.11 2.11 98 1009.9
20260904223708 22 342 0.0 1.6 0.00 2.11 2.11 99 1009.9
20260904223203 22 343 0.0 0.0 0.00 2.11 2.11 99 1010.1
20260904222659 22 343 0.0 0.0 0.00 2.11 2.11 99 1010.4
20260904222155 22 343 0.0 0.0 0.00 2.11 2.11 99 1010.2
20260904221654 22 344 0.0 0.0 0.00 2.11 2.11 99 1010.3
20260904221149 22 344 0.0 0.0 0.00 2.11 2.11 99 1010.2
20260904220643 22 344 0.0 0.0 0.00 2.11 2.11 99 1010.2
20260904220138 22 344 0.0 0.0 0.00 2.11 2.11 99 1010.1
20260904215633 22 343 0.0 0.0 0.00 2.11 2.11 99 1010.1
20260904215130 22 344 0.0 0.0 0.00 2.11 2.11 99 1010.0
20260904214630 22 344 0.0 0.0 0.00 2.11 2.11 99 1009.9
20260904214125 22 344 0.0 0.0 0.00 2.11 2.11 99 1010.0
20260904213623 22 344 0.0 0.0 0.00 2.11 2.11 99 1010.2
20260904213119 22 344 0.0 0.0 0.00 2.11 2.11 99 1010.2
20260904212614 22 344 0.0 0.0 0.00 2.11 2.11 99 1010.2
20260904212109 22 344 0.0 0.0 0.00 2.11 2.11 99 1010.6
20260904211608 22 344 0.0 0.0 0.00 2.11 2.11 99 1011.0
20260904211103 22 344 0.0 0.0 0.00 2.11 2.11 99 1011.0
20260904210602 22 345 0.0 0.0 0.00 2.11 2.11 99 1010.9
20260904210059 22 344 0.0 0.0 0.00 2.11 2.11 99 1010.8
20260904205554 22 343 1.6 3.2 0.00 2.11 2.11 99 1011.0
20260904205050 22 339 0.0 1.6 0.00 2.11 2.11 99 1011.0
20260904204546 22 344 0.0 0.0 0.00 2.11 2.11 99 1011.1
20260904204042 22 344 0.0 0.0 0.00 2.11 2.11 99 1011.3
20260904203538 22 340 1.6 1.6 0.00 2.11 2.11 99 1011.2
20260904203034 22 341 1.6 1.6 0.00 2.11 2.11 99 1011.2
20260904202530 21 339 3.2 3.2 0.00 2.11 2.11 99 1011.1
20260904202026 21 331 3.2 3.2 0.00 2.11 2.11 99 1011.3
20260904201521 21 330 0.0 0.0 0.00 2.11 2.11 99 1011.0
20260904201016 21 330 0.0 0.0 0.00 2.11 2.11 99 1010.6
20260904200514 21 330 0.0 0.0 0.00 2.11 2.11 99 1010.4
20260904200005 21 330 0.0 0.0 0.00 2.11 2.11 99 1010.9
20260904195503 21 329 1.6 1.6 0.00 2.11 2.11 99 1010.5
20260904195002 21 333 0.0 0.0 0.00 2.11 2.11 99 1010.5
20260904194457 21 331 0.0 0.0 0.00 2.11 2.11 99 1010.5
20260904193952 21 333 0.0 0.0 0.00 2.11 2.11 99 1010.5
20260904193447 21 333 0.0 0.0 0.00 2.11 2.11 99 1010.4
20260904192942 21 331 0.0 0.0 0.00 2.11 2.11 99 1010.5
20260904192437 21 331 0.0 0.0 0.00 2.11 2.11 99 1010.8
20260904191934 21 331 0.0 0.0 0.00 2.11 2.11 99 1010.6
20260904191430 21 331 0.0 0.0 0.00 2.11 2.11 99 1010.8
20260904190926 21 331 0.0 0.0 0.18 2.11 2.11 99 1011.1
20260904190421 21 331 0.0 0.0 1.27 2.11 2.11 99 1010.6
20260904185917 21 331 0.0 0.0 3.17 2.08 2.08 99 1010.6
20260904185413 21 188 3.2 3.2 5.64 1.93 1.93 99 1011.0
20260904184913 21 340 1.6 1.6 8.94 1.57 1.57 99 1012.2
20260904184407 22 304 4.8 6.4 4.27 0.76 0.76 95 1013.2
20260904183903 26 39 8.0 11.3 0.00 0.05 0.05 88 1012.6
20260904183358 27 18 0.0 0.0 0.00 0.05 0.05 94 1010.3
20260904182854 28 7 0.0 1.6 0.00 0.05 0.05 94 1010.2
20260904182348 28 5 0.0 0.0 0.18 0.05 0.05 92 1009.9
20260904181843 28 348 0.0 1.6 0.18 0.05 0.05 87 1010.3
20260904181338 30 355 1.6 3.2 0.18 0.05 0.05 79 1010.4
20260904180834 31 12 0.0 0.0 0.00 0.03 0.03 74 1010.6
20260904180329 31 348 1.6 1.6 0.00 0.03 0.03 72 1010.5
20260904175828 31 353 3.2 3.2 0.00 0.03 0.03 71 1011.0
20260904175326 32 343 1.6 1.6 0.00 0.03 0.03 67 1010.5
20260904174821 31 0 0.0 1.6 0.00 0.03 0.03 75 1010.9
20260904174317 31 4 1.6 1.6 0.00 0.03 0.03 73 1010.8
20260904173813 31 27 4.8 6.4 0.00 0.03 0.03 69 1010.9
20260904173308 31 297 1.6 3.2 0.00 0.03 0.03 74 1010.8
20260904172804 31 4 0.0 1.6 0.00 0.03 0.03 68 1011.0
20260904172305 31 336 1.6 1.6 0.00 0.03 0.03 71 1010.9
20260904171758 31 348 0.0 1.6 0.00 0.03 0.03 69 1011.3
20260904171253 31 343 0.0 1.6 0.00 0.03 0.03 73 1011.2
20260904170750 30 7 1.6 3.2 0.00 0.03 0.03 73 1011.1
20260904170246 31 340 0.0 0.0 0.00 0.03 0.03 70 1011.2
20260904165744 30 344 0.0 0.0 0.00 0.03 0.03 73 1011.4
20260904165238 30 341 1.6 1.6 0.00 0.03 0.03 72 1011.0
20260904164732 30 313 1.6 1.6 0.00 0.03 0.03 75 1011.6
20260904164227 30 318 1.6 3.2 0.00 0.03 0.03 77 1011.7
20260904163724 30 314 1.6 1.6 0.00 0.03 0.03 74 1011.5
20260904163219 30 344 1.6 1.6 0.00 0.03 0.03 71 1011.5
20260904162718 30 0 0.0 1.6 0.00 0.03 0.03 72 1011.7
20260904162213 30 334 1.6 1.6 0.00 0.03 0.03 72 1011.9
20260904161709 30 340 0.0 0.0 0.00 0.03 0.03 75 1011.9
20260904161203 30 55 3.2 6.4 0.00 0.03 0.03 70 1011.8
20260904160659 30 72 1.6 3.2 0.00 0.03 0.03 70 1011.8
20260904160154 30 349 0.0 0.0 0.00 0.03 0.03 74 1012.0
20260904155649 30 19 1.6 1.6 0.00 0.03 0.03 71 1011.7
20260904155148 30 25 0.0 1.6 0.00 0.03 0.03 69 1012.0
20260904154648 29 344 0.0 0.0 0.00 0.03 0.03 73 1011.8
20260904154147 29 10 1.6 1.6 0.00 0.03 0.03 71 1011.9
20260904153643 28 7 3.2 3.2 0.00 0.03 0.03 78 1012.0
20260904153138 29 27 3.2 3.2 0.00 0.03 0.03 72 1011.9
20260904152635 29 317 3.2 4.8 0.00 0.03 0.03 74 1012.0
20260904152130 29 345 0.0 1.6 0.00 0.03 0.03 72 1012.0
20260904151625 28 0 1.6 3.2 0.00 0.03 0.03 73 1011.7
20260904151123 28 345 3.2 3.2 0.00 0.03 0.03 73 1011.8
20260904150619 28 1 1.6 3.2 0.00 0.03 0.03 76 1011.9
20260904150114 28 356 4.8 4.8 0.00 0.03 0.03 74 1012.1
20260904145613 27 236 3.2 4.8 0.00 0.03 0.03 77 1011.9
20260904145108 27 12 0.0 0.0 0.00 0.03 0.03 83 1011.9
20260904144604 28 354 0.0 0.0 0.00 0.03 0.03 76 1011.9
20260904144059 28 346 0.0 1.6 0.00 0.03 0.03 78 1011.9
20260904143555 27 343 3.2 4.8 0.00 0.03 0.03 75 1012.1
20260904143052 27 19 0.0 0.0 0.00 0.03 0.03 74 1012.1
20260904142548 27 27 0.0 1.6 0.00 0.03 0.03 85 1012.1
20260904142043 27 25 0.0 1.6 0.00 0.03 0.03 81 1012.2
20260904141538 27 11 0.0 0.0 0.00 0.03 0.03 82 1012.2
20260904141034 27 26 0.0 0.0 0.00 0.03 0.03 84 1012.1
20260904140534 27 66 1.6 3.2 0.00 0.03 0.03 82 1012.2
20260904140028 26 31 1.6 1.6 0.00 0.03 0.03 80 1012.4
20260904135527 26 28 0.0 1.6 0.00 0.03 0.03 85 1012.1
20260904135024 26 26 0.0 0.0 0.00 0.03 0.03 84 1012.2
20260904134519 25 51 3.2 3.2 0.00 0.03 0.03 86 1012.3
20260904134013 26 33 0.0 1.6 0.00 0.03 0.03 84 1012.2
20260904133507 25 35 0.0 0.0 0.00 0.03 0.03 88 1012.2
20260904133004 26 35 0.0 0.0 0.00 0.03 0.03 84 1012.1
20260904132458 25 36 0.0 0.0 0.00 0.03 0.03 84 1012.2
20260904131958 25 18 1.6 1.6 0.00 0.03 0.03 84 1012.2
20260904131453 24 12 1.6 1.6 0.00 0.03 0.03 85 1012.1
20260904130949 23 313 6.4 6.4 0.00 0.03 0.03 86 1012.4
20260904130448 23 332 1.6 1.6 0.00 0.03 0.03 91 1012.2
20260904125942 23 22 0.0 0.0 0.00 0.03 0.03 91 1012.2
20260904125439 23 17 0.0 0.0 0.00 0.03 0.03 89 1012.4
20260904124938 22 343 0.0 0.0 0.00 0.03 0.03 90 1012.2
20260904124434 22 350 0.0 1.6 0.00 0.03 0.03 92 1012.2
20260904123930 22 330 3.2 3.2 0.00 0.03 0.03 92 1012.3
20260904123430 21 5 0.0 0.0 0.00 0.03 0.03 96 1012.4
20260904122925 21 4 0.0 0.0 0.00 0.03 0.03 95 1012.1
20260904122425 21 6 0.0 0.0 0.00 0.03 0.03 97 1012.2
20260904121919 21 7 0.0 0.0 0.00 0.03 0.03 98 1012.3
20260904121416 21 339 1.6 1.6 0.00 0.03 0.03 99 1012.1
20260904120907 21 354 0.0 0.0 0.00 0.03 0.03 99 1012.4
20260904120403 21 343 0.0 0.0 0.00 0.03 0.03 99 1012.2
20260904115858 21 356 0.0 0.0 0.00 0.03 0.03 98 1012.1
20260904115352 21 355 0.0 0.0 0.00 0.03 0.03 98 1012.2
20260904114847 21 355 0.0 0.0 0.00 0.03 0.03 97 1011.8
20260904114341 21 353 0.0 1.6 0.00 0.03 0.03 98 1012.0
20260904113836 21 325 0.0 0.0 0.00 0.03 0.03 99 1011.8
20260904113336 21 324 0.0 0.0 0.00 0.03 0.03 98 1011.8
20260904112825 21 322 1.6 1.6 0.00 0.03 0.03 97 1011.5
20260904112321 21 304 0.0 0.0 0.00 0.03 0.03 97 1011.7
20260904111817 21 47 1.6 3.2 0.00 0.03 0.03 96 1011.5
20260904111312 21 340 1.6 1.6 0.00 0.03 0.03 99 1011.7
20260904110808 21 328 1.6 1.6 0.00 0.03 0.03 97 1011.8
20260904110307 21 351 0.0 0.0 0.00 0.03 0.03 99 1012.0
20260904105802 21 43 1.6 1.6 0.00 0.03 0.03 99 1011.9
20260904105305 21 330 1.6 1.6 0.00 0.03 0.03 96 1012.1
20260904104757 20 321 1.6 3.2 0.00 0.03 0.03 99 1011.8
20260904104253 20 343 0.0 1.6 0.00 0.03 0.03 99 1011.9
20260904103749 20 326 0.0 0.0 0.00 0.03 0.03 99 1011.6
20260904103243 20 326 0.0 0.0 0.00 0.03 0.03 99 1011.7
20260904102739 20 313 0.0 0.0 0.00 0.03 0.03 98 1011.6
20260904102234 20 359 0.0 0.0 0.00 0.03 0.03 99 1011.8
20260904101731 21 14 0.0 0.0 0.00 0.03 0.03 98 1011.8
20260904101226 21 328 3.2 3.2 0.00 0.03 0.03 97 1011.9
20260904100722 20 319 3.2 3.2 0.00 0.03 0.03 99 1011.8
20260904100218 20 354 0.0 1.6 0.00 0.03 0.03 99 1011.8
20260904095717 20 3 0.0 0.0 0.00 0.03 0.03 99 1011.5
20260904095212 20 353 3.2 3.2 0.00 0.03 0.03 99 1011.6
20260904094708 20 341 3.2 3.2 0.00 0.03 0.03 99 1011.8
20260904094203 20 343 1.6 3.2 0.00 0.03 0.03 99 1011.8
20260904093700 20 338 3.2 3.2 0.00 0.03 0.03 99 1011.7
20260904093159 20 353 1.6 3.2 0.00 0.03 0.03 99 1011.6
20260904092655 20 353 0.0 0.0 0.00 0.03 0.03 99 1011.6
20260904092151 20 359 1.6 1.6 0.00 0.03 0.03 99 1011.3
20260904091647 20 352 1.6 1.6 0.00 0.03 0.03 99 1011.4
20260904091147 19 359 1.6 3.2 0.00 0.03 0.03 99 1011.5
20260904090642 18 2 0.0 0.0 0.00 0.03 0.03 99 1010.8
20260904090137 18 2 0.0 0.0 0.00 0.03 0.03 99 1010.4
20260904085637 18 2 0.0 0.0 0.00 0.03 0.03 99 1010.6
20260904085132 18 2 0.0 0.0 0.00 0.03 0.03 99 1010.4
20260904084627 18 2 0.0 0.0 0.00 0.03 0.03 99 1010.4
20260904084124 18 2 0.0 0.0 0.00 0.03 0.03 99 1010.2
20260904083620 18 2 0.0 0.0 0.00 0.03 0.03 99 1010.4
20260904083115 18 2 0.0 0.0 0.00 0.03 0.03 99 1010.3
20260904082610 18 2 0.0 0.0 0.00 0.03 0.03 99 1010.5
20260904082106 18 2 0.0 0.0 0.00 0.03 0.03 99 1010.6
20260904081601 18 2 0.0 0.0 0.00 0.03 0.03 99 1010.6
20260904081056 18 2 0.0 0.0 0.00 0.03 0.03 99 1010.9
20260904080551 18 2 0.0 0.0 0.00 0.03 0.03 99 1011.1
20260904080048 18 2 0.0 0.0 0.00 0.03 0.03 99 1011.1
20260904075543 18 2 0.0 0.0 0.00 0.03 0.03 99 1011.0
20260904075038 18 2 0.0 0.0 0.00 0.03 0.03 99 1011.1
20260904074537 18 3 0.0 0.0 0.00 0.03 0.03 99 1011.0
20260904074032 18 3 0.0 0.0 0.00 0.03 0.03 99 1011.1
20260904073527 18 3 0.0 0.0 0.00 0.03 0.03 99 1011.2
20260904073023 18 2 0.0 0.0 0.00 0.03 0.03 99 1011.1
20260904072519 18 2 0.0 0.0 0.00 0.03 0.03 99 1010.9
20260904072014 18 2 0.0 0.0 0.00 0.03 0.03 99 1010.6
20260904071510 18 1 0.0 0.0 0.00 0.03 0.03 99 1010.6
20260904071004 18 1 0.0 0.0 0.00 0.03 0.03 99 1010.5
20260904070503 18 1 0.0 0.0 0.00 0.03 0.03 99 1010.6
20260904065957 18 1 0.0 0.0 0.00 0.03 0.03 99 1010.4
20260904065453 18 1 0.0 0.0 0.00 0.03 0.03 99 1010.4
20260904064948 18 1 0.0 0.0 0.00 0.03 0.03 99 1010.5
20260904064444 18 1 0.0 0.0 0.00 0.03 0.03 99 1010.5
20260904063939 18 1 0.0 0.0 0.00 0.03 0.03 99 1010.6
20260904063436 18 2 0.0 0.0 0.00 0.03 0.03 99 1010.9
20260904062931 18 2 0.0 0.0 0.00 0.03 0.03 99 1010.8
20260904062427 18 2 0.0 0.0 0.00 0.03 0.03 99 1010.8
20260904061922 18 2 0.0 0.0 0.00 0.03 0.03 99 1010.5
20260904061419 18 2 0.0 0.0 0.00 0.03 0.03 99 1010.8
20260904060915 18 2 0.0 0.0 0.00 0.03 0.03 99 1010.5
20260904060410 19 2 0.0 0.0 0.00 0.03 0.03 99 1011.1
20260904055906 19 2 0.0 0.0 0.00 0.03 0.03 99 1010.8
20260904055401 19 2 0.0 0.0 0.00 0.03 0.03 99 1011.2
20260904054856 19 1 0.0 0.0 0.00 0.03 0.03 99 1011.3
20260904054352 19 1 0.0 0.0 0.00 0.03 0.03 99 1011.1
20260904053848 19 2 0.0 0.0 0.00 0.03 0.03 99 1011.2